Wind_Speed
16 16 16 16 16 16 18 19 18 17 16 14 13 11 11 9 8 8 8 8 7 7 6 5 5 5 5 6 7 8 8 8 7 6 6 5 5 4 4 3 2 2 2 3 4 4 4 4 5
17 16 17 17 16 16 20 20 19 18 16 15 14 13 12 11 10 9 9 9 8 8 7 6 5 6 6 7 8 9 9 9 8 8 7 6 6 5 4 3 2 1 1 1 2 2 3 3 4
17 17 17 18 18 18 22 21 20 18 17 16 15 14 13 12 11 10 11 11 9 8 8 8 7 8 8 9 10 11 11 10 10 9 9 8 7 6 6 5 4 3 2 1 1 2 2 2 3
17 18 18 19 20 23 23 21 20 19 18 16 15 14 14 13 12 11 11 11 10 9 9 9 9 9 9 11 12 12 12 12 12 12 11 10 9 8 7 6 6 5 4 3 3 3 3 3 3
18 18 18 19 22 23 23 22 20 19 18 17 15 15 15 14 13 12 12 12 11 11 10 9 10 10 11 12 13 13 13 14 14 13 13 12 11 10 9 9 8 7 7 6 6 5 5 5 5
18 18 18 20 22 23 23 22 21 20 19 18 17 16 16 15 14 13 13 13 11 11 11 11 11 11 12 13 14 15 15 15 16 15 15 14 13 13 12 11 10 10 9 9 8 8 7 7 7
19 19 20 21 22 23 23 22 21 20 20 19 18 17 16 15 15 15 15 14 13 12 12 12 12 12 13 14 15 16 17 17 18 18 17 17 16 15 15 14 13 12 12 11 11 10 9 9 9
19 19 21 22 23 24 23 22 21 21 21 19 18 17 16 16 16 16 17 16 14 13 13 12 13 14 15 16 17 18 19 19 19 20 20 19 19 18 17 16 15 14 13 13 12 12 11 11 10
19 20 21 23 23 23 22 22 21 21 20 20 19 18 18 17 17 17 17 15 15 15 14 14 14 15 17 18 19 20 21 21 21 21 22 21 21 20 19 18 17 16 15 14 14 13 13 13 12
20 21 24 23 23 23 22 22 21 20 20 20 19 18 18 17 17 17 17 16 16 16 16 16 15 16 17 19 20 21 23 23 22 22 23 23 22 22 21 20 19 17 17 16 15 15 15 14 14
21 23 23 23 23 23 22 21 21 20 20 20 19 18 18 18 18 17 17 17 16 16 16 16 17 17 18 20 22 22 23 24 24 24 25 24 24 23 22 22 21 19 19 18 17 16 16 16 16
22 22 23 23 23 22 22 21 21 20 20 19 18 18 17 17 18 18 18 17 17 16 15 15 16 17 19 21 24 24 24 25 26 26 26 25 25 24 24 23 22 21 20 19 19 18 18 18 17
21 22 22 22 22 22 21 20 20 20 19 19 18 18 17 17 18 18 18 17 15 14 14 15 16 17 19 21 23 25 25 26 27 26 26 26 26 25 25 25 24 23 22 21 21 20 20 19 19
20 21 20 21 21 21 20 20 20 19 19 18 17 17 18 17 17 17 17 16 14 14 15 15 17 17 19 21 22 24 26 26 27 27 27 27 26 26 25 25 25 24 23 23 22 22 22 21 20
19 19 20 20 20 19 19 19 19 18 17 16 16 16 16 16 16 16 16 15 14 15 15 17 17 19 20 22 23 24 24 25 26 26 26 27 27 27 26 26 26 25 25 25 25 24 23 23 22
17 18 19 19 19 19 18 17 17 17 17 16 16 17 17 16 16 15 16 15 15 16 17 17 18 19 20 23 23 25 25 25 26 26 26 26 26 27 27 27 27 27 26 26 26 26 25 25 24
16 16 17 19 19 18 17 17 17 17 17 17 17 17 17 17 16 16 16 16 16 17 17 18 19 18 19 22 23 24 24 26 26 25 25 26 26 27 28 28 27 27 27 27 27 27 27 26 26
15 15 16 18 18 17 17 17 16 16 16 16 16 17 17 16 15 16 17 17 17 18 19 19 19 18 18 20 21 22 23 25 26 26 26 27 27 27 28 28 28 28 28 28 28 28 28 28 28
16 16 16 18 17 16 17 16 16 16 16 16 16 16 15 15 15 15 16 17 17 17 18 18 19 18 18 18 19 21 22 23 25 25 25 26 27 28 28 27 28 28 28 28 29 30 29 29 29
14 15 15 17 16 16 16 16 16 16 16 16 15 15 15 15 15 15 16 16 17 17 16 16 17 17 17 18 19 21 22 23 24 25 26 26 26 26 26 27 28 28 28 29 29 29 30 29 29
13 14 15 15 15 15 15 15 15 15 15 15 15 15 15 15 16 16 16 16 16 16 16 15 16 16 17 17 19 21 22 22 23 25 25 26 27 27 27 28 28 29 29 29 30 29 30 30 30
12 13 14 14 13 14 14 15 16 15 15 14 15 15 16 17 17 17 17 17 17 16 16 16 16 16 17 17 17 19 20 21 22 23 24 25 26 26 27 28 29 29 29 29 29 30 30 30 31
12 12 12 13 13 14 14 14 16 15 15 15 14 15 16 17 18 18 18 18 18 18 18 18 17 17 18 17 17 19 20 21 21 22 24 24 25 26 27 28 29 29 30 30 30 30 30 30 30
12 12 12 12 12 13 14 14 15 14 13 14 14 15 15 16 16 17 18 18 19 19 19 19 18 19 19 18 18 19 21 22 22 23 24 25 26 27 28 29 30 30 30 30 30 30 30 30 30
12 11 11 12 12 13 15 14 15 15 15 15 15 16 17 16 17 18 18 19 19 19 19 19 19 20 20 20 20 20 21 22 23 24 25 25 26 27 28 28 28 29 30 30 31 31 31 31 31
12 12 12 13 13 14 16 15 16 16 16 16 16 16 17 18 18 19 19 19 19 20 20 21 21 21 21 21 21 22 22 23 24 25 26 26 26 26 27 27 28 29 29 30 30 31 31 31 32
14 14 14 13 12 13 14 15 15 15 16 17 17 17 19 19 19 20 20 20 20 21 22 22 22 22 23 23 23 23 23 24 25 26 26 26 26 27 27 28 28 28 29 29 30 30 30 31 31
14 15 15 14 14 13 13 14 16 16 17 17 18 19 20 21 21 20 21 22 22 23 24 24 24 24 25 25 25 25 26 26 27 27 28 28 28 28 29 29 30 30 30 30 30 30 30 30 30
14 15 15 15 14 13 13 16 16 16 17 18 18 19 21 21 21 22 23 23 23 24 25 25 26 27 26 26 26 27 28 28 28 28 29 29 29 29 30 30 31 31 31 31 31 31 31 31 30
14 14 15 15 15 15 14 17 16 17 17 18 19 19 20 21 22 23 24 24 25 26 26 26 26 26 26 26 27 28 28 28 28 28 29 29 29 30 30 31 31 31 31 31 32 32 32 32 31
Wind_Direction
247 245 242 241 241 243 244 248 248 249 250 251 251 248 247 244 243 243 247 242 240 241 232 220 221 227 233 236 236 232 223 217 210 203 196 192 190 182 169 149 122 93 67 52 42 35 34 33 32
247 245 242 239 237 239 244 246 246 248 251 250 249 250 250 249 251 248 247 245 239 246 246 240 239 237 239 241 240 237 228 221 216 210 205 205 207 204 194 186 174 152 80 28 22 17 18 16 14
247 243 240 238 234 231 242 244 246 249 250 249 248 252 252 254 253 255 254 254 249 251 253 253 253 249 246 243 241 236 231 225 221 217 215 213 214 214 210 208 211 212 225 275 307 328 342 346 351
244 242 239 237 235 238 243 244 246 248 249 247 248 252 254 254 258 264 261 263 259 257 257 260 261 257 251 245 239 234 231 227 223 221 221 220 218 218 217 218 222 226 234 248 264 280 291 298 308
242 240 238 236 238 240 241 243 245 245 247 248 249 253 256 260 267 269 272 273 266 263 264 267 265 258 255 247 242 237 233 229 224 224 224 225 224 222 222 225 228 233 238 245 255 264 272 276 279
241 239 236 236 239 239 240 241 242 243 244 245 248 252 258 262 266 271 278 274 271 271 273 269 263 259 253 245 240 239 235 230 227 225 226 227 227 227 227 230 232 235 239 245 251 257 262 266 271
239 237 235 236 238 238 239 240 240 242 242 245 249 253 259 264 267 272 275 275 275 275 275 271 264 261 253 247 239 237 234 231 229 226 227 229 229 230 232 233 235 237 240 245 251 256 260 261 265
238 237 235 235 236 238 239 239 239 239 242 248 250 254 260 265 270 274 278 274 273 271 269 267 262 258 251 245 240 238 235 231 231 229 230 231 232 233 235 237 238 238 240 243 248 253 257 259 260
235 233 233 234 235 237 237 237 237 240 243 247 252 257 261 265 270 275 277 273 272 269 266 263 261 255 251 245 243 241 236 233 233 232 232 233 235 235 236 239 240 240 240 243 247 252 254 256 258
233 231 234 235 236 237 236 237 237 239 243 247 252 258 263 267 272 275 275 275 273 270 266 263 259 254 249 246 245 241 237 235 234 234 235 237 237 237 236 239 241 242 243 246 249 250 254 255 257
233 233 235 234 234 234 235 236 237 238 241 245 251 259 265 271 272 273 275 276 272 269 266 260 254 252 249 248 245 240 238 237 235 234 237 240 239 238 238 239 242 244 245 248 250 251 254 255 257
233 234 234 233 232 233 234 236 237 239 242 248 254 259 266 269 271 273 275 272 273 271 266 261 255 250 250 249 244 239 241 240 237 237 239 241 239 239 241 242 243 246 248 249 250 252 254 255 257
231 233 233 233 231 232 233 235 238 239 244 249 255 261 267 271 272 272 273 272 270 269 266 261 257 252 250 247 245 242 241 241 239 239 240 240 241 241 243 245 246 249 250 250 250 251 254 257 259
231 232 232 232 231 232 234 236 238 242 247 251 257 263 267 269 271 272 272 268 267 264 262 260 254 252 250 248 246 244 243 243 242 240 241 241 241 242 244 246 248 250 252 252 252 253 255 257 259
227 228 229 230 231 232 235 238 240 243 248 253 260 266 268 269 270 271 270 269 265 261 259 257 255 255 255 252 248 242 242 244 243 242 242 242 242 244 246 248 250 252 253 253 254 256 258 259 260
222 223 227 228 229 232 231 235 240 245 250 256 261 266 270 271 270 270 269 268 264 262 259 257 258 256 255 251 248 248 245 245 246 244 242 243 246 247 248 251 251 253 255 255 257 258 259 260 261
216 215 222 228 228 230 230 236 243 249 253 258 263 268 271 269 267 267 267 266 263 261 261 261 260 258 257 252 250 250 248 248 246 244 243 245 248 250 250 251 253 253 255 257 258 259 260 260 262
211 212 220 227 227 229 232 238 245 251 255 260 263 267 266 265 265 266 267 265 263 264 265 264 262 259 257 254 251 249 248 247 245 246 247 247 249 251 254 254 255 256 257 259 260 261 261 262 262
208 210 217 224 228 230 233 241 248 252 257 260 262 265 267 266 268 269 269 266 265 265 265 261 259 258 257 253 251 249 248 249 249 249 249 251 252 253 254 255 257 258 259 261 262 261 262 263 263
208 211 219 226 229 232 236 240 247 253 256 258 262 266 266 265 267 269 270 271 268 268 266 261 259 258 259 257 255 252 251 252 253 253 253 253 255 256 257 260 260 260 261 262 263 263 263 263 264
211 212 222 230 235 237 240 244 248 252 258 260 265 268 267 266 269 270 271 272 270 267 266 265 263 261 264 263 259 254 252 253 255 256 256 256 257 259 261 262 263 263 264 265 266 265 265 264 265
218 218 224 232 235 241 245 249 253 255 258 262 263 265 267 266 268 270 270 271 271 272 271 268 267 267 268 267 264 258 257 259 260 258 259 259 260 261 263 264 265 265 266 267 267 266 267 267 265
218 222 226 231 232 241 247 246 254 256 257 259 262 265 267 269 270 271 270 271 272 271 271 271 270 269 270 269 267 264 264 263 262 263 263 264 264 264 264 264 265 267 267 268 268 268 267 268 267
222 224 231 235 238 245 247 246 252 254 254 258 263 266 267 269 271 272 271 271 272 270 270 269 269 270 270 269 269 267 267 266 266 266 266 266 266 265 265 265 266 266 267 268 269 268 267 266 266
224 223 234 240 240 244 249 247 248 252 254 259 265 267 268 270 270 269 272 273 272 270 271 269 269 268 269 270 270 270 269 268 268 269 268 267 267 267 268 267 266 267 267 268 269 268 267 266 265
225 222 227 234 239 246 254 253 254 255 256 260 264 267 269 271 273 272 272 273 271 270 271 271 270 268 268 270 271 272 271 271 270 270 269 269 268 267 268 268 269 269 268 268 268 268 266 265 264
230 231 233 239 245 249 255 257 256 254 258 262 265 269 270 271 276 274 271 271 271 272 272 272 270 268 269 269 271 272 273 273 272 271 271 271 271 270 269 270 270 269 269 269 268 268 267 265 264
234 237 239 241 246 250 260 262 261 259 261 264 267 270 274 273 276 276 273 275 274 274 272 273 272 270 269 269 270 271 272 272 272 272 271 272 272 273 272 271 270 270 270 269 269 268 267 265 265
239 240 241 242 244 249 260 264 265 267 266 267 270 272 275 274 274 275 275 276 276 276 273 272 272 271 270 270 271 272 272 272 271 272 272 272 272 273 273 273 272 271 270 269 269 268 267 266 265
239 240 243 247 253 255 260 268 267 268 269 271 272 274 275 275 275 275 276 276 276 276 275 273 272 271 271 270 271 272 273 274 273 273 273 273 273 273 272 272 272 270 269 269 269 269 268 266 265
Height
5892 5893 5895 5896 5899 5900 5899 5899 5900 5902 5903 5904 5906 5907 5908 5909 5910 5913 5910 5909 5909 5909 5909 5910 5910 5911 5911 5912 5912 5913 5913 5914 5914 5914 5915 5915 5916 5916 5916 5917 5917 5917 5917 5917 5917 5917 5917 5916 5916
5889 5890 5892 5894 5896 5897 5896 5896 5898 5899 5901 5902 5903 5904 5905 5906 5907 5907 5907 5906 5907 5908 5908 5908 5909 5910 5910 5910 5911 5911 5912 5913 5913 5913 5914 5914 5915 5915 5916 5916 5916 5916 5916 5916 5916 5916 5916 5916 5916
5886 5887 5890 5891 5893 5894 5892 5893 5895 5896 5898 5900 5901 5902 5903 5904 5904 5904 5905 5905 5905 5905 5906 5906 5907 5908 5908 5909 5909 5910 5910 5911 5912 5912 5912 5913 5913 5914 5914 5915 5915 5915 5915 5915 5915 5915 5915 5915 5915
5883 5885 5887 5889 5889 5889 5889 5891 5892 5894 5896 5897 5899 5900 5900 5901 5902 5902 5902 5902 5902 5903 5903 5904 5904 5905 5906 5906 5907 5908 5908 5909 5910 5910 5911 5911 5912 5912 5913 5913 5914 5914 5914 5914 5914 5914 5914 5914 5913
5879 5881 5884 5884 5884 5885 5887 5888 5890 5891 5893 5894 5896 5897 5898 5899 5899 5899 5900 5899 5899 5900 5900 5901 5901 5902 5903 5903 5904 5905 5905 5906 5907 5908 5908 5909 5909 5910 5911 5911 5912 5912 5912 5912 5912 5912 5912 5912 5912
5876 5878 5881 5881 5881 5882 5884 5885 5887 5889 5890 5892 5893 5894 5895 5896 5896 5897 5897 5897 5897 5897 5897 5897 5897 5898 5899 5900 5901 5902 5902 5903 5904 5905 5906 5906 5907 5908 5908 5909 5910 5910 5911 5911 5911 5911 5911 5911 5911
5873 5875 5876 5877 5878 5879 5881 5883 5885 5886 5888 5889 5891 5891 5892 5893 5894 5894 5894 5894 5894 5893 5894 5893 5893 5894 5895 5896 5897 5898 5899 5899 5900 5901 5902 5903 5904 5905 5906 5907 5907 5908 5908 5909 5909 5909 5909 5909 5909
5869 5872 5872 5873 5875 5876 5878 5880 5882 5883 5885 5886 5888 5889 5890 5890 5891 5891 5891 5890 5890 5890 5890 5890 5890 5890 5891 5891 5892 5894 5895 5896 5897 5898 5899 5900 5901 5902 5903 5904 5905 5905 5906 5906 5906 5906 5907 5906 5906
5865 5869 5868 5869 5871 5873 5875 5877 5879 5881 5882 5884 5885 5886 5887 5887 5887 5887 5887 5887 5887 5886 5886 5886 5885 5886 5886 5887 5888 5889 5890 5891 5893 5894 5895 5896 5897 5898 5899 5900 5901 5902 5903 5903 5904 5904 5904 5904 5904
5861 5864 5864 5866 5868 5870 5872 5874 5876 5878 5880 5881 5882 5883 5883 5884 5884 5884 5884 5884 5883 5883 5883 5882 5882 5882 5882 5882 5884 5884 5885 5886 5888 5890 5891 5892 5893 5894 5895 5896 5897 5899 5900 5900 5901 5901 5901 5901 5901
5857 5858 5860 5862 5864 5867 5869 5871 5873 5875 5877 5878 5879 5880 5880 5881 5881 5881 5881 5880 5879 5879 5879 5878 5878 5878 5878 5879 5880 5880 5881 5882 5883 5885 5886 5888 5889 5890 5891 5892 5893 5894 5896 5896 5897 5897 5897 5898 5898
5853 5854 5856 5859 5861 5864 5866 5868 5871 5872 5874 5876 5877 5877 5877 5877 5877 5877 5876 5876 5875 5875 5875 5874 5874 5874 5874 5874 5875 5876 5877 5878 5879 5880 5882 5883 5884 5886 5887 5888 5889 5890 5891 5892 5893 5893 5894 5894 5894
5849 5851 5853 5856 5859 5861 5863 5866 5868 5869 5871 5873 5874 5874 5874 5874 5874 5873 5872 5872 5872 5871 5871 5870 5870 5870 5869 5869 5870 5871 5871 5872 5874 5876 5877 5878 5880 5881 5883 5884 5884 5885 5887 5888 5888 5889 5889 5890 5890
5846 5848 5851 5853 5856 5858 5861 5863 5865 5867 5868 5870 5870 5871 5871 5871 5870 5870 5869 5868 5868 5867 5867 5867 5867 5866 5866 5866 5866 5866 5866 5867 5870 5871 5873 5874 5875 5877 5878 5879 5880 5881 5882 5883 5884 5885 5885 5886 5886
5843 5846 5849 5851 5854 5856 5859 5861 5862 5864 5865 5867 5867 5867 5867 5867 5867 5866 5866 5865 5864 5864 5863 5863 5862 5862 5862 5861 5861 5862 5863 5863 5865 5866 5868 5869 5870 5872 5873 5875 5876 5876 5877 5878 5879 5880 5880 5881 5882
5841 5845 5847 5849 5851 5854 5858 5859 5860 5861 5863 5863 5864 5864 5864 5864 5863 5862 5862 5861 5861 5860 5859 5859 5858 5857 5857 5857 5857 5858 5858 5859 5860 5861 5863 5864 5865 5867 5868 5869 5870 5871 5872 5873 5874 5875 5876 5876 5877
5840 5844 5846 5847 5849 5852 5855 5856 5857 5858 5859 5860 5860 5860 5860 5860 5859 5858 5858 5857 5857 5856 5855 5854 5853 5853 5852 5852 5852 5853 5853 5854 5856 5857 5858 5859 5860 5862 5863 5864 5865 5866 5867 5868 5869 5870 5871 5872 5872
5840 5842 5843 5845 5847 5849 5852 5853 5854 5855 5856 5856 5856 5856 5856 5855 5855 5854 5854 5853 5853 5852 5851 5850 5849 5849 5848 5848 5849 5849 5849 5850 5851 5852 5854 5855 5856 5857 5858 5859 5859 5860 5862 5863 5864 5864 5865 5866 5866
5837 5840 5842 5842 5845 5847 5849 5850 5851 5852 5853 5853 5853 5853 5852 5852 5851 5850 5850 5850 5849 5848 5847 5846 5845 5845 5845 5845 5845 5845 5845 5846 5847 5848 5849 5849 5851 5852 5853 5853 5854 5855 5856 5857 5857 5858 5858 5859 5860
5835 5838 5839 5840 5842 5844 5846 5847 5848 5849 5849 5849 5849 5849 5848 5848 5847 5847 5846 5846 5845 5844 5843 5842 5841 5841 5841 5840 5840 5841 5841 5842 5843 5843 5844 5845 5846 5846 5847 5847 5848 5848 5849 5850 5850 5851 5852 5853 5853
5833 5836 5837 5838 5840 5842 5843 5845 5845 5846 5846 5846 5846 5845 5845 5844 5844 5843 5843 5842 5841 5840 5839 5839 5838 5838 5838 5837 5836 5836 5837 5837 5838 5838 5839 5840 5840 5840 5841 5841 5841 5842 5843 5844 5844 5844 5845 5846 5846
5832 5833 5835 5836 5838 5840 5842 5843 5843 5842 5843 5843 5842 5842 5841 5840 5840 5839 5839 5838 5837 5836 5836 5835 5835 5834 5834 5833 5832 5832 5832 5832 5833 5833 5834 5834 5834 5835 5835 5835 5835 5836 5836 5837 5837 5838 5838 5839 5839
5830 5831 5833 5834 5836 5838 5838 5841 5840 5839 5839 5839 5839 5838 5837 5837 5836 5835 5835 5834 5833 5832 5832 5831 5831 5830 5830 5829 5828 5827 5827 5828 5828 5828 5829 5829 5829 5829 5829 5829 5829 5830 5830 5830 5830 5830 5831 5831 5832
5827 5829 5831 5832 5834 5836 5836 5837 5837 5835 5836 5836 5835 5834 5834 5833 5832 5831 5830 5829 5829 5828 5827 5827 5826 5826 5826 5825 5824 5824 5823 5823 5823 5823 5823 5823 5823 5823 5822 5822 5823 5823 5823 5823 5823 5823 5823 5824 5825
5825 5828 5831 5831 5832 5833 5832 5833 5834 5832 5832 5832 5831 5831 5830 5829 5827 5826 5826 5825 5824 5823 5823 5822 5821 5821 5821 5820 5820 5819 5818 5818 5817 5817 5817 5817 5816 5816 5816 5815 5815 5815 5815 5815 5816 5816 5816 5817 5818
5823 5826 5829 5830 5831 5830 5828 5829 5830 5828 5828 5828 5827 5826 5825 5824 5823 5822 5821 5820 5819 5819 5818 5817 5816 5816 5815 5815 5814 5813 5813 5812 5812 5811 5811 5810 5810 5810 5809 5808 5808 5808 5808 5808 5808 5808 5809 5809 5810
5820 5822 5824 5825 5826 5826 5826 5825 5825 5824 5824 5824 5823 5822 5821 5820 5819 5817 5816 5815 5814 5813 5812 5811 5811 5810 5809 5808 5808 5807 5807 5806 5805 5805 5804 5804 5803 5803 5802 5801 5801 5801 5800 5800 5800 5800 5801 5801 5802
5817 5818 5819 5821 5822 5823 5823 5822 5821 5820 5820 5819 5818 5817 5816 5815 5814 5812 5811 5810 5809 5808 5806 5805 5804 5803 5803 5802 5801 5801 5800 5799 5798 5798 5797 5796 5796 5795 5794 5794 5794 5793 5793 5793 5793 5793 5793 5793 5794
5814 5815 5815 5817 5818 5819 5820 5820 5816 5815 5815 5815 5814 5812 5811 5809 5808 5807 5806 5804 5802 5801 5800 5799 5797 5796 5795 5794 5794 5793 5792 5791 5790 5790 5789 5788 5787 5787 5786 5786 5785 5785 5785 5785 5785 5785 5785 5785 5786
5809 5810 5812 5813 5814 5814 5815 5816 5811 5810 5810 5809 5808 5807 5805 5804 5802 5801 5799 5798 5796 5794 5793 5792 5790 5789 5788 5787 5786 5785 5784 5783 5782 5781 5781 5780 5779 5778 5778 5777 5777 5777 5777 5776 5777 5777 5777 5777 5778